Theta_e
308 308 308 308 308 308 308 308 308 308 308 308 308 307 308 308 308 308 309 309 310 311 312 314 316 316 316 315 314 314 313 315 319 319 317 316 314 313 312 312 313 313 312 313 315 315 315 316 316 317 319 320 320 321 320 321 321 320 321 320 317 318 319 320 321 319 318 319 317 314 314 316 316 313 312 311 312 313 313 313 313 313 312 311 308 306 308 306
308 308 308 308 308 308 308 308 309 309 308 308 308 308 308 307 307 307 308 308 309 310 311 313 316 316 316 316 315 314 314 316 319 319 317 316 313 311 311 312 313 313 312 315 316 316 316 317 317 316 317 320 320 320 321 320 320 321 322 320 318 321 320 319 318 318 317 318 317 315 314 315 316 314 312 312 314 313 313 313 312 312 312 310 308 307 308 305
308 308 308 308 308 308 309 309 309 309 309 309 309 308 308 308 308 307 307 307 308 308 310 313 315 316 316 316 316 314 314 317 319 319 318 316 314 311 311 311 312 313 312 316 317 316 317 316 317 316 316 319 320 320 320 319 318 319 321 319 320 321 319 318 317 317 316 316 317 316 314 314 315 314 312 312 315 315 314 314 313 313 313 312 309 307 307 305
309 309 309 309 309 309 309 309 309 309 309 309 309 308 308 308 308 308 307 307 308 308 309 311 314 315 315 317 315 314 318 321 320 319 317 315 313 311 311 310 311 312 312 313 314 315 315 316 316 316 317 319 320 319 319 318 318 319 318 318 319 318 317 317 316 316 315 314 315 315 314 314 314 313 312 313 314 315 315 315 315 314 314 314 310 307 308 306
309 309 310 310 310 310 310 309 309 310 310 310 310 309 308 308 308 307 307 308 307 307 308 309 313 315 315 317 315 315 321 321 319 318 315 313 313 311 311 311 311 312 312 312 314 314 315 316 316 317 318 319 319 319 318 318 317 317 317 317 318 316 316 316 315 314 314 313 314 314 314 314 314 313 312 313 314 315 316 315 315 315 315 315 312 308 308 307
309 310 310 310 310 310 310 310 310 310 310 310 310 310 309 308 308 307 307 307 307 307 308 308 311 314 315 316 315 317 320 319 319 317 314 312 312 311 312 311 311 312 312 312 314 315 315 316 316 317 318 318 319 319 318 317 315 316 318 317 317 316 316 316 314 312 312 313 314 314 314 314 313 313 313 313 313 315 315 314 314 315 315 316 312 309 308 307
310 310 310 310 310 310 310 310 310 310 311 310 310 310 309 309 308 308 307 307 307 307 307 308 310 314 315 316 317 319 320 320 320 317 313 313 312 311 312 311 311 311 312 313 315 316 316 317 317 318 318 318 319 318 317 316 314 315 317 317 316 315 315 315 313 311 311 313 314 313 312 313 313 313 314 313 313 314 314 312 312 313 314 314 311 309 309 308
311 310 310 310 310 310 310 310 310 310 311 310 311 310 310 309 308 308 307 307 307 307 308 308 311 314 315 318 321 320 320 322 320 317 314 313 312 312 312 311 310 311 312 314 315 316 317 317 318 318 319 319 318 317 316 315 315 315 316 317 316 314 314 314 313 311 311 312 312 311 311 313 313 313 313 313 313 314 314 312 310 311 312 311 311 309 309 309
311 311 311 310 310 310 310 310 310 310 310 310 310 310 310 310 309 308 307 307 307 307 308 309 312 313 314 320 322 317 320 322 318 317 315 314 313 312 312 312 311 311 313 314 314 316 317 317 319 318 319 319 317 317 315 315 316 316 316 317 316 315 315 314 313 312 312 312 311 311 312 313 313 312 312 313 314 313 314 313 311 310 310 310 310 310 309 309
312 311 311 311 311 310 310 310 310 310 309 310 309 310 310 309 309 308 307 307 307 308 309 310 312 313 315 320 319 317 320 318 315 316 315 313 312 311 312 312 311 312 314 314 314 316 316 318 319 317 318 318 317 316 315 315 315 315 315 316 315 315 315 314 313 313 312 312 312 311 313 314 312 311 314 315 314 314 314 313 312 310 310 310 309 310 310 309
312 312 312 311 311 311 310 310 310 309 309 309 309 309 309 309 309 308 308 307 308 309 310 311 312 314 318 319 317 317 319 315 314 314 312 311 311 312 313 311 310 313 315 314 316 316 316 318 317 316 317 317 316 315 314 314 314 313 313 314 314 315 315 314 314 313 312 312 312 312 313 314 312 311 314 314 312 313 313 313 312 310 310 310 310 310 310 309
312 312 312 311 311 311 311 310 310 310 310 309 309 309 309 309 309 308 308 307 309 311 311 312 312 314 318 318 316 318 317 314 314 312 311 311 311 311 311 310 310 313 314 315 318 316 314 316 316 316 317 316 317 316 314 313 312 313 312 314 315 315 315 315 315 314 313 313 312 312 312 313 314 312 314 314 311 311 312 312 312 311 310 310 310 310 309 309
312 312 312 311 311 311 311 311 311 310 310 310 309 309 309 309 309 308 308 307 310 311 312 312 312 314 318 317 318 319 316 315 314 312 310 310 311 311 310 310 310 311 312 315 317 314 312 314 315 315 315 315 318 315 312 312 312 313 313 314 315 315 316 316 315 314 313 313 312 312 312 313 316 315 315 315 311 310 311 311 312 311 310 310 310 310 309 309
312 312 312 311 311 311 311 310 311 310 310 310 310 310 309 309 309 309 308 308 311 312 312 312 312 316 318 317 317 316 315 314 313 312 311 310 312 311 310 311 310 310 311 312 314 312 311 313 314 314 313 314 315 312 312 314 312 314 315 315 315 315 315 316 315 313 313 312 311 312 312 313 316 317 317 315 311 311 311 312 312 312 311 310 310 310 309 309
312 312 311 311 311 311 311 310 310 310 310 310 310 311 310 310 309 308 308 309 311 312 312 312 314 318 319 317 316 314 314 314 313 313 311 311 314 313 312 312 311 311 311 311 311 311 311 313 314 315 313 311 312 313 316 317 315 316 315 314 316 315 316 317 313 313 314 312 310 313 313 314 316 316 315 313 312 311 311 313 313 312 312 310 309 309 309 309
312 311 311 311 311 310 310 310 310 310 310 310 311 311 310 310 309 308 309 311 312 312 314 316 317 317 317 316 316 313 314 315 315 315 312 311 314 315 313 312 312 311 311 311 311 311 312 313 315 315 313 312 314 316 317 317 317 318 316 315 316 315 316 317 314 313 314 312 311 312 313 314 315 315 313 310 311 311 311 313 313 313 313 311 310 309 309 308
312 311 311 310 310 310 309 309 309 308 309 309 310 310 311 311 309 309 311 312 313 313 315 319 318 315 315 315 315 314 316 316 316 314 312 311 313 314 313 312 313 313 312 312 312 313 313 314 314 314 314 314 316 317 317 315 314 316 317 316 316 316 314 314 314 313 313 313 313 313 313 314 315 315 313 310 311 311 312 313 313 314 314 313 311 309 309 308
311 311 311 310 310 309 309 308 308 307 308 308 309 311 311 310 309 311 314 313 313 314 314 316 317 315 315 315 314 315 316 316 315 314 312 310 311 312 313 313 313 313 312 313 313 313 314 315 315 315 316 316 316 316 316 315 314 312 313 313 314 315 314 314 315 314 312 313 313 314 313 314 314 315 315 313 312 312 313 313 313 313 313 313 312 310 309 309
311 311 311 311 311 309 309 309 307 307 307 307 309 310 311 313 312 313 316 315 314 316 316 316 316 315 314 314 314 315 315 314 314 313 312 311 310 311 312 312 313 313 313 314 314 314 315 316 317 317 317 317 318 317 316 318 317 314 314 315 314 313 313 316 316 313 313 314 313 314 314 315 315 315 315 315 315 314 313 314 314 314 313 314 314 312 311 310
311 311 311 311 311 310 309 308 307 307 307 308 309 311 313 317 316 314 315 315 314 315 315 315 316 315 314 315 315 314 313 313 313 314 313 310 310 311 311 312 313 313 314 316 316 315 315 317 318 318 318 318 319 318 317 318 317 316 317 316 315 314 314 317 317 312 312 314 314 315 315 315 315 315 315 315 315 315 314 314 314 314 314 314 314 313 312 311
311 312 312 311 311 310 309 308 308 307 308 309 310 312 313 315 317 316 312 312 314 315 315 314 314 314 314 315 315 314 314 314 313 314 313 310 311 312 312 312 313 314 314 316 317 315 315 316 317 318 318 318 318 318 318 318 317 317 316 314 314 315 316 318 316 311 311 313 314 315 315 315 315 315 315 315 315 315 314 314 315 314 315 315 315 314 312 312
312 312 312 311 311 310 309 309 308 307 308 311 312 314 313 313 315 312 309 311 314 316 315 313 312 312 312 313 314 313 314 313 313 314 312 311 312 312 313 313 313 316 316 316 317 316 316 317 317 317 317 317 317 317 317 317 316 316 315 315 314 316 318 318 315 310 310 312 314 315 314 315 315 315 315 315 315 315 315 315 315 315 315 315 315 315 313 312
312 313 312 312 311 310 310 310 308 309 310 312 313 315 313 310 310 308 309 312 313 316 314 312 312 311 311 313 312 312 312 312 313 314 312 311 312 313 314 314 313 316 317 316 317 317 317 317 316 317 316 317 316 315 315 315 315 316 316 315 315 317 318 317 314 311 310 311 313 314 314 314 315 314 315 315 315 315 315 316 316 317 317 317 317 316 314 312
313 312 312 312 311 310 311 309 310 312 312 311 312 313 310 309 309 310 313 313 312 315 315 314 313 312 313 313 312 311 311 312 313 314 312 311 312 312 314 314 314 314 316 316 316 317 317 317 316 315 315 316 316 315 315 314 315 316 317 317 316 317 318 318 317 314 313 313 312 313 314 315 316 317 317 316 315 315 315 315 316 317 316 317 317 317 315 313
312 312 312 312 311 311 310 311 313 312 311 312 311 309 308 309 309 309 312 312 313 315 314 314 314 313 313 313 311 311 311 312 312 312 312 312 313 313 313 314 314 313 315 315 315 316 316 315 314 315 315 315 316 315 316 316 315 315 318 319 318 318 318 320 320 317 316 316 314 314 315 314 315 317 318 316 314 314 315 314 315 316 316 315 316 316 316 314
312 312 312 312 312 311 311 315 315 310 312 315 310 307 307 309 310 309 311 312 314 314 312 313 314 314 313 312 311 311 312 312 309 309 311 311 311 312 312 313 313 313 314 315 315 316 316 312 312 316 317 316 317 315 316 318 315 314 319 321 319 319 319 320 320 318 317 316 315 314 315 315 315 315 317 317 315 314 315 315 316 317 316 317 317 316 315 314
313 312 312 312 312 311 313 316 314 312 315 314 309 306 306 307 308 310 311 310 313 316 314 313 314 314 313 312 311 312 312 310 307 307 309 309 310 311 312 313 313 312 313 315 315 316 316 314 313 316 316 317 317 316 317 318 316 317 319 319 317 317 319 319 319 317 316 316 316 315 315 316 316 315 316 316 315 315 315 316 317 317 315 317 319 316 314 314
314 313 312 312 311 311 313 314 313 314 314 311 309 308 307 307 308 311 310 309 314 318 316 313 312 312 312 310 310 311 309 308 311 310 306 306 309 310 311 312 313 313 312 314 315 315 317 317 316 315 315 317 317 317 318 319 318 317 316 315 316 316 317 317 317 316 316 316 317 316 316 316 316 315 316 315 314 313 314 313 315 315 314 315 318 317 314 313
315 313 314 313 312 312 312 312 313 313 312 310 310 309 307 306 308 311 310 312 314 315 314 313 312 311 311 310 310 310 308 308 311 309 305 307 308 309 310 311 312 313 312 312 315 317 316 312 313 315 316 318 315 312 315 319 318 314 312 313 314 315 314 315 315 315 315 317 318 318 316 316 315 314 315 315 313 313 313 313 314 314 315 316 317 320 316 313
318 316 316 313 312 313 312 312 312 311 311 311 310 309 308 308 310 310 311 313 313 313 313 312 312 313 313 312 312 311 310 309 308 306 307 309 308 308 308 309 310 312 313 313 314 316 311 307 309 314 315 314 311 308 309 314 314 312 313 315 315 315 313 313 314 313 315 318 319 318 316 316 315 314 314 314 314 314 314 314 314 315 316 317 318 320 318 314
318 318 317 314 313 313 313 313 312 311 310 311 310 308 309 311 310 310 313 312 310 314 314 312 313 314 313 315 316 313 311 311 308 307 309 308 309 309 309 310 311 312 314 314 315 315 312 309 310 312 311 310 311 310 309 309 310 313 314 314 316 316 314 314 313 313 316 319 317 317 318 317 315 314 314 314 315 314 314 314 314 314 316 318 319 321 318 314
317 318 318 315 314 313 312 313 312 310 310 310 309 308 310 313 312 312 312 307 307 314 316 316 316 315 314 316 318 315 314 313 310 309 310 310 310 310 311 313 314 315 315 315 317 318 317 315 314 313 309 310 313 314 310 308 309 313 314 314 316 317 316 318 317 316 318 317 314 315 318 319 316 314 313 314 314 314 314 314 314 315 315 316 320 321 317 314
317 317 318 317 314 312 311 312 310 309 310 309 308 308 310 312 314 315 313 308 311 316 317 318 317 316 316 317 318 316 316 315 311 309 311 312 312 312 313 313 315 318 318 316 317 319 319 318 316 314 312 310 313 315 314 312 310 312 314 315 317 317 319 321 319 317 317 316 313 312 315 317 314 313 314 315 314 314 314 315 316 317 316 317 322 320 316 314
319 318 318 317 315 313 312 311 309 307 309 309 308 308 310 312 315 316 314 311 313 315 315 316 316 316 317 317 318 317 316 316 312 310 312 313 312 314 314 313 314 317 317 316 316 317 318 318 316 317 315 312 313 315 317 316 312 312 314 315 317 316 317 318 316 315 316 315 313 311 313 313 312 313 315 314 314 315 314 315 317 318 318 320 322 318 315 313
320 318 317 316 315 314 312 310 309 308 310 310 308 310 312 314 314 314 314 313 312 314 314 314 316 318 317 317 317 316 317 318 315 312 313 313 314 314 315 314 314 315 316 316 316 315 316 318 319 317 314 313 313 315 317 317 314 313 314 315 317 317 316 316 316 316 315 315 315 313 313 313 312 314 315 315 315 314 314 314 315 316 317 320 321 317 315 313
320 318 317 316 314 314 313 310 309 309 311 311 309 311 312 313 315 314 314 314 312 313 314 313 316 318 316 317 318 316 317 317 316 314 314 314 315 315 316 316 315 314 315 316 316 316 315 318 318 313 311 310 309 312 315 315 315 315 314 315 316 316 316 317 317 317 314 315 316 315 315 314 313 315 315 314 314 313 313 313 313 314 315 318 321 320 317 315
319 317 316 315 314 315 313 310 309 310 312 313 311 312 312 312 314 314 314 313 311 313 314 313 315 316 314 315 318 318 317 316 315 315 316 316 315 316 316 316 316 314 314 315 317 318 316 317 316 312 312 308 303 307 310 310 312 313 314 315 314 314 314 314 316 316 315 317 317 316 316 315 315 316 315 313 313 313 313 313 313 315 315 316 319 322 321 318
318 316 316 316 314 314 313 310 310 310 312 313 313 313 313 312 312 311 312 311 310 313 313 312 315 315 314 313 315 318 317 315 316 315 315 316 316 317 316 315 316 314 314 314 316 319 317 317 316 311 310 308 304 307 311 309 309 310 310 312 312 313 314 314 315 315 315 318 318 316 315 314 314 315 313 312 313 312 313 312 313 314 314 315 317 319 319 318
317 316 317 317 315 314 313 310 310 311 312 312 313 314 314 312 311 310 310 309 310 311 312 312 313 314 315 314 314 317 316 316 317 316 315 316 317 317 316 315 317 315 314 314 315 317 316 316 316 308 306 308 307 308 312 312 309 307 308 310 310 311 314 314 315 315 315 318 318 317 316 314 314 315 314 313 312 312 312 312 313 313 313 314 314 316 317 318
316 317 318 316 314 314 312 310 311 311 312 313 314 315 314 313 312 309 308 309 310 310 311 312 312 312 313 314 314 316 317 317 318 316 315 316 316 316 316 315 318 317 313 313 315 316 315 315 316 309 304 308 310 310 313 314 313 309 308 310 310 309 311 312 314 314 315 316 317 317 317 314 314 315 315 313 312 312 313 313 314 314 313 313 314 316 319 320
315 318 317 314 313 313 311 310 311 311 311 312 313 314 313 313 312 310 309 310 309 309 308 310 311 311 312 313 313 314 316 317 318 317 316 315 314 315 315 315 318 317 314 313 314 315 314 314 316 313 309 310 312 313 314 314 315 313 311 311 311 311 312 313 315 315 314 315 316 317 317 315 313 314 314 313 313 313 314 314 315 315 314 314 315 317 319 320
316 319 316 313 312 312 310 311 310 309 310 312 313 314 313 313 312 311 310 311 310 309 308 308 309 310 311 311 311 313 315 315 316 316 316 316 315 314 315 316 316 315 314 314 314 315 317 316 316 315 315 315 312 310 310 311 312 313 312 312 312 312 313 314 316 315 313 314 315 315 316 316 314 314 313 312 312 312 313 314 313 314 314 314 316 318 319 320
317 317 314 311 311 311 311 312 310 309 310 311 313 314 314 313 312 311 310 310 311 311 310 309 308 308 310 310 310 312 312 312 314 314 314 316 316 314 314 315 315 314 313 314 313 314 316 316 316 315 315 316 312 306 305 307 309 311 312 313 313 313 313 314 314 314 314 315 314 314 316 316 315 315 314 312 312 312 312 312 311 312 312 312 315 318 319 319
317 314 311 310 311 311 313 314 313 311 310 311 312 313 313 312 312 312 311 311 311 311 310 309 308 308 309 310 310 309 310 310 312 312 314 315 315 315 314 313 314 313 312 314 314 313 314 315 316 315 315 316 314 309 308 307 308 310 311 312 314 313 314 315 314 312 314 316 315 315 315 315 314 315 315 312 312 311 311 312 311 312 312 312 313 316 318 318
316 313 310 310 310 311 314 316 316 314 312 311 312 313 313 313 311 311 312 311 310 310 310 310 311 310 309 310 310 309 310 310 310 312 314 314 314 316 315 313 313 312 315 319 317 313 315 316 315 314 315 315 315 314 313 310 307 309 311 311 313 314 314 315 314 313 314 315 314 314 314 314 313 313 313 312 312 311 311 312 311 310 312 312 313 316 317 317
316 315 312 309 309 311 313 314 315 315 314 313 313 313 313 314 313 311 311 311 311 310 310 311 312 310 309 310 309 309 309 310 310 311 312 311 312 315 313 312 313 314 316 319 317 313 316 317 313 313 314 313 314 314 316 314 310 309 311 311 312 314 314 314 314 314 314 314 314 315 314 314 313 312 312 312 312 312 312 312 311 311 312 313 314 316 317 316
313 317 315 311 311 311 311 312 313 314 314 314 314 315 315 314 314 313 312 311 311 311 310 310 310 309 310 310 310 309 309 309 310 310 310 310 310 312 311 310 312 312 311 313 314 313 315 316 313 313 313 312 312 312 314 315 313 311 312 312 311 313 314 315 315 314 314 314 314 315 315 315 315 312 312 313 312 312 312 311 311 311 311 314 315 316 315 314
312 315 316 314 313 313 312 312 312 313 314 314 314 315 315 315 314 314 313 312 312 312 312 312 310 309 310 310 311 311 311 310 310 310 310 310 310 311 310 310 313 311 308 310 312 311 312 313 313 313 314 312 311 311 311 313 313 313 314 313 312 313 314 314 314 313 314 314 314 314 314 315 314 312 312 313 312 311 311 310 311 311 310 313 315 314 313 312
310 312 314 314 315 315 313 311 312 312 313 314 314 314 315 315 315 315 314 313 312 312 312 313 312 310 309 310 312 312 311 312 313 312 311 311 310 311 310 311 313 312 310 310 312 311 311 312 313 314 314 314 313 312 312 312 312 312 313 313 313 313 314 313 313 313 313 314 313 314 314 314 313 312 312 311 311 311 310 310 311 311 311 311 313 313 312 311
308 310 311 312 312 312 312 312 312 313 313 314 314 314 314 315 315 315 315 315 314 312 311 312 313 312 312 311 312 311 311 312 314 315 314 313 311 311 310 311 312 311 309 308 310 311 312 312 313 313 313 314 313 312 312 312 312 312 312 313 313 313 313 314 314 313 313 314 313 314 315 314 313 312 312 311 311 310 311 311 310 310 310 311 311 311 311 311
305 305 306 308 308 307 308 309 311 312 312 313 314 314 314 314 314 314 315 315 315 313 312 312 312 313 313 313 312 311 310 311 312 314 314 314 313 313 312 313 313 311 309 308 309 310 311 311 312 312 313 314 313 313 313 312 312 312 312 312 312 311 312 313 313 313 313 313 314 314 315 314 313 311 311 311 310 310 310 310 310 310 311 311 311 311 311 311
301 301 301 304 305 307 307 308 309 311 311 312 313 313 313 313 313 313 315 315 314 314 313 312 312 313 313 314 313 312 311 311 311 311 312 312 312 313 314 315 314 312 310 309 309 309 310 311 311 312 313 313 313 313 313 312 313 313 312 311 311 311 311 311 312 312 313 313 313 313 313 312 311 311 311 310 310 310 310 310 311 311 311 311 312 312 311 311
Wind_Speed
10 10 10 11 12 12 12 12 13 13 13 14 14 13 13 13 12 12 12 13 13 12 13 11 7 7 6 6 7 9 9 8 8 8 9 9 9 8 9 7 6 5 3 2 4 6 7 8 8 8 6 5 3 2 4 2 2 3 4 5 5 6 5 2 4 4 4 5 1 6 8 9 7 7 5 1 7 10 7 8 8 8 8 5 5 4 9 20
10 11 11 11 11 12 12 12 13 13 13 13 14 14 13 13 12 12 11 12 12 12 13 12 8 6 7 6 6 8 8 8 10 12 13 13 11 9 8 7 6 5 3 3 6 8 7 7 8 9 7 4 3 3 4 3 3 5 4 5 6 5 3 3 5 5 4 6 2 3 7 9 7 6 7 6 10 11 12 11 10 11 11 10 9 8 14 20
10 11 11 12 12 12 13 13 13 13 14 13 14 14 14 13 13 12 12 11 12 12 12 13 9 6 7 7 6 6 6 8 12 11 12 15 14 10 8 7 6 5 5 4 5 7 7 7 6 9 7 5 4 3 4 4 3 5 4 6 5 3 4 3 3 4 4 4 5 4 5 8 6 4 7 7 12 13 15 13 11 15 16 16 14 13 17 20
10 10 11 12 13 13 14 14 14 14 14 14 14 14 14 13 13 13 12 12 11 11 11 12 10 6 6 6 4 3 3 7 8 3 9 15 14 12 9 6 5 5 5 5 5 5 6 6 6 9 7 6 4 4 5 5 3 2 3 8 4 3 5 2 0 2 2 2 6 5 4 8 7 5 7 8 11 12 14 15 15 16 17 16 15 16 19 20
10 11 12 12 13 14 14 14 15 15 15 15 15 15 14 14 13 13 12 12 12 11 10 10 10 7 5 5 2 0 2 5 1 2 8 13 14 12 9 6 5 5 5 5 5 4 5 5 6 6 6 6 5 5 6 6 2 2 7 10 6 3 5 1 3 0 1 2 5 6 6 6 5 7 10 11 12 11 7 9 15 17 15 13 16 18 18 19
10 11 12 13 14 15 15 15 15 15 15 16 15 15 15 15 14 14 13 12 12 11 10 9 9 7 4 3 1 1 3 3 2 1 6 10 12 10 8 6 4 5 5 5 4 4 5 5 6 6 6 6 6 6 4 6 4 5 8 8 6 5 6 1 3 1 2 4 6 6 5 4 6 8 11 15 18 14 1 2 5 9 10 8 15 18 17 18
11 11 12 13 14 15 16 16 16 16 16 16 16 16 16 16 15 15 14 13 12 12 11 10 8 6 3 1 1 3 7 6 0 2 6 9 9 9 7 5 4 4 6 6 6 6 5 5 7 6 6 7 7 7 3 4 5 6 7 7 4 3 6 3 1 2 3 6 6 2 3 5 11 10 8 15 20 18 8 2 1 1 3 6 14 17 17 19
12 12 13 13 14 15 16 17 18 18 18 17 17 17 17 16 16 16 16 15 14 12 11 9 6 4 3 2 2 5 8 6 3 4 7 9 8 7 6 4 4 5 6 8 7 6 5 7 8 5 7 6 3 5 3 3 7 9 9 7 3 2 7 5 2 4 5 6 5 3 6 10 13 7 8 17 18 17 14 7 6 5 6 9 13 16 16 17
14 14 14 14 15 15 16 17 18 18 19 19 19 18 18 17 17 17 16 16 15 13 10 7 5 4 5 4 4 6 5 4 5 6 7 9 7 7 6 3 4 5 6 7 5 6 4 6 6 3 7 6 3 4 3 5 5 6 8 6 5 6 7 5 5 7 6 6 4 6 12 12 7 3 11 21 19 16 16 12 10 9 10 12 13 15 16 16
16 16 16 16 16 16 17 17 17 18 19 20 20 19 19 18 18 18 18 18 16 13 9 6 5 6 6 5 5 5 2 2 5 6 6 8 7 5 5 5 6 7 7 5 4 6 4 5 3 1 6 6 5 4 3 5 3 2 7 7 8 10 7 6 8 8 5 6 8 9 13 11 4 2 13 14 7 11 14 15 13 11 13 14 13 13 14 16
17 17 17 17 18 18 18 18 18 18 19 20 20 20 19 19 19 19 19 19 16 11 8 5 6 7 6 6 7 5 2 3 4 5 5 6 7 6 6 7 7 7 6 5 4 3 4 4 0 1 3 2 3 3 3 3 4 4 5 8 11 12 10 9 11 9 6 5 8 9 11 12 5 6 18 11 3 5 10 13 13 12 13 13 14 13 12 14
17 18 18 18 19 19 19 19 18 19 19 20 20 20 20 19 19 19 19 19 16 10 5 4 7 7 5 7 8 6 3 4 4 5 6 6 7 7 6 7 7 7 6 5 3 2 2 1 3 6 3 3 4 3 2 1 2 4 4 9 12 11 13 15 14 10 8 6 6 5 8 12 13 15 23 14 7 7 9 11 12 13 12 12 13 12 11 13
18 19 19 20 20 20 21 20 19 19 20 20 20 20 20 19 19 18 19 18 14 8 3 4 7 7 6 6 5 8 8 7 6 5 6 6 6 5 5 5 6 7 6 4 2 4 4 2 3 6 2 4 6 1 1 2 2 5 5 7 9 9 11 12 12 9 8 6 8 5 7 9 14 21 23 11 10 10 10 12 12 12 11 11 12 11 12 13
18 19 20 21 22 22 22 22 21 20 21 22 21 20 19 19 18 17 18 16 11 6 2 5 6 6 5 4 3 7 10 10 8 6 7 7 5 4 3 3 4 5 5 4 4 5 6 4 3 4 0 3 4 1 3 5 4 5 5 5 6 9 6 6 9 10 9 4 7 7 7 9 10 15 16 9 11 11 11 13 13 12 11 11 11 12 12 13
18 19 20 22 23 23 24 24 23 21 22 22 22 20 19 18 17 17 17 13 8 3 2 4 6 5 6 6 3 6 9 9 8 8 8 8 7 4 5 4 4 4 4 5 6 5 6 4 3 3 1 1 1 3 7 6 6 6 5 6 7 7 5 6 9 12 9 4 8 10 6 11 12 6 5 8 9 10 11 12 12 13 13 12 12 12 12 12
18 19 20 22 23 24 25 25 25 23 23 23 22 20 18 17 17 15 13 8 4 2 4 3 7 5 7 4 2 4 6 7 7 9 10 10 8 4 6 6 5 5 4 5 6 6 5 4 2 2 1 3 5 6 7 7 7 6 7 8 8 7 8 5 7 10 8 5 10 13 8 10 8 1 7 6 7 9 10 12 13 15 15 14 12 11 12 12
17 18 20 21 22 23 24 25 26 25 25 25 23 21 18 16 15 13 9 5 3 4 4 2 4 5 6 2 2 3 3 5 7 8 11 12 8 5 7 6 4 4 5 5 4 4 5 4 2 2 4 6 6 5 6 7 7 6 7 7 9 11 11 7 4 7 8 6 10 13 12 14 14 8 5 6 9 10 12 13 15 16 15 14 12 12 13 12
17 18 19 21 22 23 23 24 24 24 24 24 23 20 17 14 12 8 3 3 3 3 3 3 3 4 4 4 3 1 3 4 7 7 9 11 9 7 5 3 3 5 5 4 4 6 5 4 3 4 6 7 7 7 7 9 9 10 9 8 9 10 11 12 5 5 11 9 10 12 13 18 20 18 14 11 11 12 14 15 16 18 18 15 13 13 13 14
17 17 19 21 22 23 23 22 22 22 23 24 20 16 13 9 7 4 5 5 4 4 3 3 7 5 3 2 2 2 4 5 6 6 8 8 8 7 5 3 4 6 5 4 6 8 5 4 4 5 8 9 11 12 12 14 14 15 13 9 11 11 11 15 7 6 10 8 10 14 15 18 19 18 18 17 14 13 15 17 16 18 17 14 14 14 13 15
16 18 20 21 23 23 22 21 21 20 20 21 17 11 7 6 5 3 5 6 8 9 7 4 9 8 7 2 4 4 3 6 5 5 8 9 9 8 7 5 5 6 7 7 6 5 3 5 7 9 12 13 14 15 16 17 14 14 13 10 13 13 13 17 7 5 6 6 10 15 15 18 20 18 18 18 16 16 17 18 18 18 16 13 15 16 14 15
16 18 20 22 23 23 22 19 19 19 18 15 10 6 5 4 5 3 0 6 13 12 10 8 5 9 10 2 4 6 2 4 6 6 10 11 9 8 8 8 7 6 9 9 3 2 3 6 11 16 17 14 10 10 12 15 14 12 12 12 12 11 14 15 3 6 5 4 9 14 15 18 19 18 18 17 17 18 19 20 20 20 16 13 15 17 14 11
15 17 20 22 22 22 21 18 18 19 14 8 6 6 3 3 3 1 1 7 11 8 7 7 5 9 10 4 5 5 2 7 8 8 13 12 9 8 8 10 10 8 8 8 4 3 6 10 18 19 11 5 4 5 8 13 14 12 10 9 10 10 13 9 2 6 4 3 7 11 13 16 18 19 20 19 18 18 20 20 19 18 16 14 15 14 12 10
15 16 19 20 20 22 19 18 19 15 10 7 6 5 3 2 1 3 2 7 8 6 8 10 10 11 11 7 7 7 7 11 10 9 17 15 9 8 8 10 11 10 8 10 9 7 8 9 14 11 3 5 7 6 8 10 10 10 8 8 10 10 10 6 2 3 6 6 7 11 12 13 16 18 19 22 20 18 20 19 17 16 16 16 14 10 10 11
14 15 18 18 19 20 19 20 16 9 8 8 5 4 3 1 3 3 2 6 8 7 7 8 8 11 11 5 8 12 10 10 7 7 17 17 9 7 10 11 11 11 10 14 15 13 13 7 1 1 3 7 10 7 8 8 7 9 10 10 11 12 12 9 3 2 6 8 4 8 12 11 12 14 14 13 13 15 16 15 15 15 14 14 12 10 10 11
14 15 16 16 18 19 20 17 8 6 9 6 3 4 2 3 5 2 2 5 8 5 2 4 5 7 9 6 8 9 6 7 5 4 13 14 8 7 7 7 9 12 14 17 15 14 15 5 4 2 4 6 9 8 9 9 7 9 12 15 16 15 14 12 5 6 8 7 2 3 10 7 6 10 10 5 5 10 10 10 13 13 11 11 11 11 11 10
12 14 14 14 16 18 16 8 4 10 9 1 3 4 2 4 4 1 1 5 8 4 3 5 7 7 9 7 7 6 2 6 2 4 10 8 5 4 4 5 5 9 10 10 9 8 7 2 3 6 8 6 8 11 12 10 8 8 5 6 11 13 13 12 8 4 6 7 1 1 7 9 4 6 8 5 7 9 8 9 12 11 11 9 8 9 10 10
11 11 12 13 14 14 10 5 9 12 5 1 6 5 2 4 4 2 2 7 9 6 6 3 3 5 7 5 6 7 2 2 4 3 6 4 3 4 6 7 6 5 2 2 5 4 4 5 3 6 7 8 9 10 11 11 9 5 1 2 2 5 8 8 6 6 6 8 4 4 3 11 9 6 10 9 9 10 9 10 12 11 15 12 7 9 10 10
13 10 11 12 12 10 6 8 12 9 4 6 8 4 3 3 4 3 3 7 5 6 5 1 1 3 4 2 5 4 1 1 3 2 2 0 3 4 8 13 10 7 6 6 8 2 4 6 6 8 8 8 8 3 3 11 9 2 3 2 2 0 3 3 4 6 6 8 7 7 8 8 12 5 11 14 12 11 12 14 14 13 16 16 7 8 10 10
16 13 12 12 11 8 7 9 8 7 8 9 7 4 3 3 4 2 3 7 2 4 2 2 3 2 5 4 5 3 2 0 0 1 3 2 4 2 5 10 9 7 7 10 11 3 2 1 2 6 8 7 3 4 4 4 5 2 4 4 4 2 1 2 4 5 6 9 9 9 12 7 12 4 10 11 10 10 12 12 13 13 13 14 10 6 9 9
18 16 15 13 10 7 8 8 8 8 8 7 6 4 2 3 3 4 8 7 0 3 2 3 3 5 10 8 7 7 5 1 2 3 4 3 4 3 2 2 4 6 5 8 10 5 2 3 1 3 5 2 4 6 5 3 2 5 5 2 1 3 2 3 5 3 5 10 9 12 17 11 10 2 9 8 9 12 11 9 11 12 10 11 10 6 8 8
20 17 17 15 11 8 6 5 6 5 3 4 5 2 2 2 2 7 9 2 2 1 4 4 5 8 12 11 6 8 9 5 4 7 5 3 5 6 4 2 3 4 6 7 9 8 6 5 3 2 1 3 5 4 3 3 2 3 3 2 3 4 3 3 4 3 6 9 4 12 20 17 11 4 7 8 11 14 12 9 9 11 8 8 8 5 6 7
21 20 20 19 16 13 9 5 5 5 3 4 3 2 3 2 5 11 6 3 1 5 5 5 7 7 11 11 5 6 8 6 8 9 7 5 6 8 9 7 7 4 6 7 6 6 7 8 8 3 1 5 5 2 2 2 3 4 5 4 4 4 3 4 5 5 8 7 2 7 12 13 13 9 8 8 9 13 12 9 9 10 8 7 5 5 5 6
24 23 24 23 20 19 15 11 9 9 7 3 1 3 2 3 9 9 6 3 1 2 3 2 6 6 7 8 5 5 4 3 9 10 7 7 6 8 11 11 8 3 4 5 5 5 3 3 8 7 2 7 11 8 5 4 7 8 7 7 6 5 5 6 6 6 8 5 4 5 3 6 9 8 13 17 14 14 13 11 10 10 9 7 3 6 4 5
27 24 27 26 24 22 19 13 9 9 7 2 2 3 4 8 9 4 8 10 4 2 2 3 5 7 7 7 5 6 5 4 9 9 7 7 6 7 10 13 13 6 3 3 4 5 6 5 8 10 4 10 16 13 5 3 7 10 7 6 7 6 6 6 7 7 7 6 2 5 3 5 5 1 12 19 18 16 12 10 10 11 10 5 3 5 4 5
30 28 29 26 24 25 22 15 11 8 6 4 4 6 8 11 8 4 7 9 5 3 3 3 4 8 9 8 4 6 7 5 9 10 7 8 8 8 9 12 15 10 4 5 4 4 8 9 6 6 2 12 14 9 3 4 4 6 5 6 7 6 7 7 8 6 3 8 6 6 4 7 6 3 8 11 14 16 13 11 12 12 11 6 4 5 5 6
33 29 27 24 25 28 25 19 15 12 8 5 6 9 11 10 5 4 5 6 7 7 6 2 4 6 8 7 6 8 7 3 7 7 6 9 10 10 9 8 14 16 11 7 4 4 6 5 5 4 0 6 4 1 2 2 2 5 6 7 3 0 3 7 8 3 1 7 8 5 6 8 9 9 9 12 13 17 15 14 16 15 13 9 6 6 6 6
29 24 21 22 27 30 27 22 17 13 7 4 8 11 9 8 6 6 5 3 6 9 7 5 7 8 9 7 7 10 8 4 7 6 5 7 8 11 12 8 12 19 17 11 5 5 5 4 4 5 2 2 2 3 0 2 1 4 4 4 2 3 1 4 6 3 3 9 10 8 12 12 9 7 8 15 15 17 17 17 16 14 11 10 8 6 5 6
22 15 15 21 28 29 27 24 19 12 4 1 9 13 8 5 6 5 2 1 3 8 9 9 9 9 10 10 8 11 12 6 8 7 6 6 6 11 15 10 11 18 20 17 7 2 3 4 3 2 1 3 2 1 2 1 1 2 2 2 0 1 3 5 5 4 6 8 10 15 20 14 11 7 7 15 17 17 18 18 14 11 10 9 8 7 6 6
14 5 6 14 24 27 28 26 17 7 3 4 10 11 6 8 7 2 2 3 5 9 11 13 10 9 11 12 9 9 13 10 9 7 7 7 5 9 15 10 10 16 20 18 11 4 2 5 4 1 2 2 4 4 5 5 4 1 4 3 2 2 3 4 5 5 7 8 9 17 20 11 7 7 10 17 18 18 18 16 12 12 12 10 7 7 7 7
9 1 3 12 23 28 29 23 11 5 6 7 9 9 7 8 6 2 3 4 5 6 8 12 12 11 12 12 10 7 9 9 9 8 8 8 7 8 13 11 8 11 14 14 11 6 2 4 5 1 1 2 4 7 10 10 9 6 5 6 6 3 1 2 4 5 6 7 7 11 15 9 1 4 10 16 16 17 16 13 10 10 11 10 8 8 6 6
6 2 4 18 30 33 28 15 6 6 6 5 7 11 11 8 6 6 4 3 2 4 4 6 9 9 9 10 10 8 6 6 8 8 7 8 10 7 10 13 9 7 6 5 8 8 4 5 6 3 3 6 8 8 8 8 7 7 9 10 10 8 4 4 7 6 4 6 8 7 13 14 1 7 7 12 13 14 13 10 7 7 9 9 9 8 7 7
4 3 5 24 40 38 23 8 6 6 5 6 6 7 6 5 7 8 6 1 1 1 3 5 6 7 7 8 11 8 5 5 7 9 8 8 13 9 8 13 11 11 8 4 7 8 3 2 6 7 6 6 4 1 0 0 0 2 5 7 8 9 9 8 8 4 3 6 8 7 12 16 1 9 5 6 8 8 8 8 7 8 9 9 8 8 7 8
4 3 6 27 45 37 15 6 7 7 7 6 5 5 4 4 5 5 6 7 5 2 2 4 6 8 7 8 9 9 7 7 8 12 11 9 10 8 7 11 10 10 9 5 3 3 2 1 6 7 6 4 1 3 2 1 0 4 6 7 9 9 10 9 5 1 2 6 8 7 10 15 2 9 6 4 5 6 6 7 9 9 8 9 10 9 8 8
4 2 4 24 44 33 13 7 8 9 10 7 8 11 8 5 7 9 9 9 8 4 6 9 10 9 9 9 8 9 9 8 9 12 12 9 6 3 4 10 11 9 9 4 2 4 4 4 5 4 5 6 4 3 2 1 4 7 8 10 11 11 11 8 3 1 4 13 16 9 8 15 6 5 3 6 8 9 8 8 8 9 8 9 10 10 9 9
3 2 1 15 30 24 11 7 8 10 12 13 15 16 13 8 9 14 14 10 9 8 7 8 7 6 8 11 11 12 13 12 10 10 9 9 5 4 3 6 10 11 6 3 2 5 5 5 7 7 9 8 10 11 5 3 5 6 7 11 14 15 16 11 6 6 10 18 19 12 12 18 14 11 15 12 8 8 11 9 7 8 9 10 11 10 9 9
3 3 2 5 13 14 8 5 6 8 10 12 12 11 16 16 9 10 12 10 11 13 9 5 4 3 8 12 13 15 17 17 13 10 9 11 7 3 4 5 6 5 4 9 5 2 2 4 10 14 14 12 15 16 5 4 6 7 9 12 13 15 17 13 8 11 12 11 12 15 20 21 20 24 29 23 15 16 18 13 8 8 10 11 10 9 9 10
3 4 4 4 5 8 8 6 8 9 8 10 8 6 14 18 11 7 10 10 11 13 9 7 8 9 11 13 14 14 15 16 13 13 14 14 12 5 2 3 4 5 7 6 4 2 0 5 11 17 20 19 21 24 18 9 9 10 11 13 14 15 16 15 16 18 14 8 11 20 24 22 19 23 30 27 21 19 20 19 18 17 15 11 5 6 9 11
4 3 2 4 5 7 9 12 14 14 13 11 8 8 14 17 14 11 10 8 9 10 8 8 14 19 19 16 13 11 11 11 10 12 14 14 13 10 3 2 2 3 5 3 3 2 2 6 9 14 19 20 21 25 28 25 18 14 13 14 16 17 19 23 24 20 13 12 17 22 26 23 17 19 27 27 22 21 21 22 20 19 19 12 2 6 10 14
4 4 2 3 5 5 9 15 17 18 20 16 11 11 16 18 20 17 10 6 7 11 12 11 13 20 24 21 15 11 10 10 10 12 13 14 14 10 6 8 6 3 3 2 2 1 2 5 8 13 16 17 20 22 26 28 24 20 19 19 19 21 26 30 23 15 19 25 25 24 26 24 19 20 26 26 24 23 21 21 20 20 21 18 8 7 15 18
4 4 3 4 5 4 6 10 12 14 16 15 13 13 15 21 24 20 13 11 10 10 14 17 17 18 22 22 18 16 17 17 18 17 16 15 13 9 7 10 8 1 3 5 4 2 5 8 10 11 12 15 19 23 27 28 25 24 22 20 22 27 30 27 17 14 22 26 23 22 21 17 16 21 23 24 24 22 20 21 23 23 24 21 15 15 20 21
8 9 8 7 6 4 5 6 8 10 10 11 13 13 16 24 27 22 17 17 17 13 15 21 23 19 17 18 19 20 22 23 24 25 21 16 14 12 9 7 9 6 4 5 5 4 6 9 8 8 10 13 17 22 27 28 26 25 21 19 25 29 24 16 14 16 18 16 17 18 15 11 16 21 21 22 25 24 23 23 22 23 23 18 14 16 19 19
9 11 9 6 5 3 4 5 7 8 7 8 12 14 17 22 23 21 16 14 19 22 19 19 20 15 12 17 20 23 25 27 27 26 22 16 14 14 9 6 10 10 6 6 6 4 6 7 6 8 9 12 16 21 21 19 17 16 18 24 32 31 23 18 19 20 18 15 13 14 13 15 20 22 21 23 26 25 22 20 19 21 20 15 12 15 17 17
Wind_Direction
11 10 10 14 15 16 17 17 18 17 15 14 14 13 13 12 8 5 0 354 350 352 355 349 334 325 317 290 271 266 273 284 288 259 235 244 241 233 234 227 233 236 244 237 178 188 194 206 203 189 195 188 215 193 155 203 210 218 225 241 254 259 273 338 300 310 325 308 179 168 193 219 210 178 185 161 236 240 226 217 222 213 221 217 129 115 152 151
3 0 1 4 5 7 9 10 11 11 11 10 9 8 8 7 5 2 358 353 346 344 347 350 339 322 323 307 287 270 271 277 273 265 248 245 242 231 227 218 220 226 230 213 196 208 218 224 198 190 211 199 182 172 174 181 202 233 250 253 258 274 308 4 309 305 305 296 302 190 203 226 227 175 165 205 227 221 228 231 221 226 228 208 169 157 162 161
357 355 355 354 355 358 0 2 2 3 3 3 4 4 3 1 360 358 356 353 346 342 340 344 341 327 322 315 304 275 273 277 270 263 238 233 233 225 218 214 213 214 217 224 230 235 252 271 220 196 218 222 186 178 196 174 195 236 253 258 265 314 312 309 285 279 283 287 281 252 204 222 230 167 156 215 238 221 224 229 216 225 229 214 187 170 171 173
349 348 347 347 348 349 351 354 354 355 355 355 357 357 358 357 355 354 353 350 344 341 336 336 335 328 321 322 315 277 281 274 269 238 206 213 215 214 213 209 208 211 212 226 240 244 259 266 220 205 224 233 191 190 214 179 185 222 221 260 303 14 308 300 147 268 265 263 271 260 199 224 221 183 187 217 243 235 230 227 221 223 225 215 188 175 179 181
337 336 338 338 340 342 343 345 346 348 347 346 348 349 352 352 352 351 348 346 343 339 333 327 324 321 320 318 300 261 286 265 300 101 191 194 195 201 209 212 208 208 200 209 222 228 238 218 201 212 232 237 197 204 223 181 171 258 235 259 295 312 288 337 99 198 223 240 258 238 222 227 198 198 217 224 235 242 242 234 229 225 233 223 183 177 183 186
325 325 327 328 331 332 333 336 338 339 339 339 340 342 345 346 348 347 344 342 338 336 330 320 313 309 310 307 246 175 254 261 69 121 192 184 192 196 206 213 210 205 187 201 215 213 221 201 201 216 234 243 221 219 216 160 176 258 249 255 270 268 267 294 100 152 211 236 237 234 241 217 202 226 226 226 235 241 278 27 244 234 247 223 169 174 184 190
319 318 318 320 321 322 326 328 330 331 332 332 333 336 338 340 342 343 342 338 335 332 326 317 304 287 281 292 180 206 242 260 246 201 195 191 203 203 211 216 213 197 183 211 221 220 229 219 223 234 247 253 237 227 192 155 197 243 265 266 258 250 251 256 116 180 223 238 242 270 278 227 230 247 240 232 237 242 242 125 129 248 229 176 163 177 189 194
318 317 316 316 315 317 319 321 324 326 326 326 328 330 333 335 337 339 338 336 334 329 320 313 291 259 228 184 229 243 242 243 236 234 214 208 212 210 217 220 218 191 195 231 241 248 260 246 244 255 257 258 247 226 181 203 218 224 253 271 253 242 249 244 193 219 229 236 251 267 252 244 243 268 271 248 244 242 240 210 174 186 186 181 185 190 193 199
318 317 317 315 314 314 315 317 320 320 322 323 323 326 328 331 333 335 335 335 335 328 317 299 265 223 195 190 245 265 248 216 232 247 224 215 221 217 212 212 223 208 214 236 247 253 259 262 262 274 278 288 277 245 185 229 237 222 250 274 257 256 252 229 227 233 224 228 227 235 247 249 244 306 276 254 248 242 236 229 203 192 201 201 203 202 199 203
318 318 318 317 315 314 314 315 316 318 319 318 320 322 325 328 330 332 334 334 335 330 312 280 239 204 193 200 236 259 254 201 228 235 220 217 217 206 209 215 216 218 228 224 227 249 263 290 313 10 294 285 258 249 181 228 303 311 273 283 266 263 257 228 240 234 216 235 219 225 253 254 193 194 262 255 247 236 226 227 218 205 216 213 211 210 206 208
317 317 318 317 316 315 315 315 316 317 315 315 317 319 322 326 327 330 332 334 336 329 305 267 222 199 199 218 238 254 225 204 220 217 216 216 204 197 214 219 207 210 235 235 222 253 290 298 50 169 284 302 252 224 198 249 328 324 299 287 264 254 249 233 238 228 208 229 211 223 260 258 206 207 247 243 122 193 208 218 219 215 224 220 218 215 208 212
314 314 316 316 315 315 315 315 317 317 315 314 313 315 320 323 325 328 331 334 337 328 301 242 205 194 214 238 241 247 224 211 225 222 218 214 207 206 213 218 210 206 235 255 220 187 253 257 201 238 281 341 284 246 227 296 305 290 287 280 270 254 245 234 229 217 204 203 170 201 266 248 222 224 244 236 163 176 202 217 220 220 225 222 221 218 213 213
314 315 315 314 314 314 314 315 317 317 315 313 313 315 317 319 322 325 328 333 335 328 294 211 196 193 229 253 232 231 234 233 237 228 218 211 201 204 208 211 211 207 227 252 193 168 193 163 229 259 299 281 277 337 302 217 245 275 252 261 278 271 254 225 210 188 190 190 147 184 273 249 217 226 241 224 167 184 206 222 227 225 224 222 221 217 217 212
316 316 315 315 315 315 314 314 315 317 315 313 313 315 316 318 319 321 325 329 332 320 253 199 191 189 231 259 230 231 238 238 235 219 213 200 174 170 175 177 192 199 205 202 176 172 178 165 228 255 196 262 287 30 251 227 209 252 250 243 253 266 265 177 171 169 180 178 154 191 262 270 255 240 230 185 166 192 214 224 228 229 223 218 219 216 218 212
315 316 316 317 318 317 316 314 315 316 314 312 312 315 318 316 315 319 320 320 324 299 203 186 188 196 260 257 237 242 235 232 221 207 205 184 171 172 157 151 148 159 163 161 163 156 158 171 219 238 162 153 255 251 259 251 221 225 246 258 241 242 246 181 174 185 190 162 173 194 240 265 279 278 163 146 172 200 225 235 232 235 228 218 215 214 219 216
315 315 317 320 320 318 317 316 315 315 314 311 310 315 318 315 312 312 310 310 307 211 162 181 190 216 285 267 200 244 227 220 209 207 207 187 187 190 153 145 136 138 137 137 143 141 157 191 229 280 249 206 233 246 265 269 249 222 225 261 261 252 260 225 175 195 200 142 179 207 245 267 271 133 116 138 188 203 232 243 239 243 237 224 216 211 216 216
316 317 321 323 322 320 318 317 316 316 315 310 310 314 316 315 307 303 297 278 251 178 174 231 187 213 268 239 229 253 194 192 192 197 205 194 193 183 159 160 159 148 134 134 150 163 184 201 198 249 231 229 240 243 259 264 262 247 225 248 262 262 268 254 191 195 193 179 204 216 235 256 260 251 215 186 193 211 238 247 247 251 246 234 221 211 213 213
317 321 326 327 326 326 322 321 321 320 315 310 312 315 315 311 297 293 262 203 149 152 209 239 193 223 240 198 231 279 112 157 177 183 196 195 192 185 185 192 169 165 166 174 193 192 198 200 205 250 241 229 226 219 232 243 257 278 271 265 273 271 266 263 261 164 176 199 229 225 231 249 258 261 259 239 217 220 240 251 254 255 252 243 230 219 216 212
317 321 327 329 330 328 325 327 327 325 318 312 315 319 314 303 280 247 190 177 167 210 255 181 188 242 289 191 171 93 104 140 160 175 181 183 178 178 201 200 173 193 209 207 193 188 196 206 215 248 243 227 221 215 224 241 259 280 284 282 283 283 272 270 274 148 179 206 228 235 243 253 258 262 264 263 250 238 245 254 256 257 255 249 238 229 221 217
315 322 326 326 329 328 325 329 330 329 324 319 327 331 301 276 266 239 188 200 224 247 284 234 207 256 285 262 133 132 142 157 171 184 173 168 163 173 194 188 185 214 227 226 199 174 195 225 229 237 239 238 237 233 236 251 267 278 280 279 274 273 272 271 267 146 188 224 241 247 253 259 263 265 265 268 267 261 257 256 255 256 254 248 241 233 223 222
313 321 326 327 328 328 327 331 332 332 330 329 335 319 283 281 282 289 179 239 235 235 262 259 245 272 274 280 146 161 167 205 203 182 172 170 164 178 188 182 200 221 220 222 198 120 195 224 236 241 248 255 261 260 253 257 267 270 269 273 273 266 267 271 253 137 177 218 254 263 265 265 265 266 264 264 265 264 260 258 258 259 258 251 242 236 227 220
313 319 327 329 329 328 331 334 332 333 336 340 315 278 301 346 284 273 7 273 248 216 236 254 260 268 259 242 193 181 239 245 225 182 170 173 181 197 187 180 213 223 193 192 183 194 213 229 243 247 253 270 286 284 267 262 264 266 262 261 265 264 268 271 129 129 175 209 264 273 274 272 268 265 261 255 253 256 256 257 260 263 264 256 246 240 227 208
310 317 324 327 327 327 330 330 329 336 343 340 312 289 330 14 140 133 184 274 269 212 211 229 231 243 241 230 198 185 222 239 237 197 171 172 190 212 207 197 222 229 190 195 210 216 222 233 248 249 227 247 257 244 248 259 255 247 246 250 254 256 267 267 161 148 195 215 273 288 279 270 265 260 252 248 244 246 255 259 261 262 260 257 253 246 224 205
308 313 317 323 323 322 326 327 329 337 329 325 316 298 311 184 128 109 224 273 267 218 202 216 225 239 234 219 180 189 222 233 234 199 168 173 184 195 221 220 227 235 218 218 221 226 239 236 195 163 164 236 252 229 221 242 248 236 228 236 248 252 259 265 301 340 245 230 254 291 281 263 252 245 239 238 232 236 250 260 264 261 253 251 250 243 228 211
305 306 311 318 317 320 325 322 330 342 322 323 317 298 284 175 139 102 296 272 252 216 185 201 199 225 211 170 167 183 229 229 216 166 165 185 194 169 211 225 227 238 232 230 231 238 247 228 111 219 219 216 239 241 227 228 251 246 226 230 245 257 265 269 317 354 296 265 176 296 297 277 232 228 222 181 179 220 234 246 259 264 252 235 232 231 220 210
299 304 309 311 313 325 328 317 339 334 318 316 334 316 242 184 161 144 307 272 252 193 134 189 180 191 182 159 158 152 255 244 190 119 167 200 229 192 222 204 209 249 245 239 243 248 246 155 114 239 235 220 234 251 239 223 243 253 233 240 250 260 269 273 293 310 285 284 209 82 313 291 249 212 211 166 169 203 205 224 244 261 261 229 203 212 204 199
284 297 303 303 313 328 330 322 331 326 309 341 333 314 250 215 209 253 285 277 260 169 137 191 178 171 163 147 161 155 218 233 99 125 178 201 210 205 237 206 194 239 232 242 255 233 190 174 183 214 225 232 231 248 236 211 228 250 54 27 261 254 261 264 272 256 261 290 271 170 233 279 275 216 204 199 196 207 213 230 237 245 260 254 200 185 194 196
267 275 286 290 304 319 310 304 320 322 307 328 328 294 269 244 238 273 265 270 266 129 132 174 102 108 107 121 198 185 330 139 136 151 124 218 209 192 225 224 231 231 184 194 234 229 151 190 198 188 205 228 222 260 225 197 217 247 76 58 69 86 261 238 245 254 267 288 270 191 174 257 282 225 190 205 209 213 221 233 240 236 248 261 243 180 186 195
261 261 265 272 289 300 287 285 296 294 292 312 320 293 280 247 246 273 245 253 222 111 120 128 130 142 120 141 210 222 354 50 288 107 125 196 236 238 240 235 252 249 197 210 240 278 76 191 223 192 208 227 194 47 23 213 218 138 117 95 79 100 137 186 239 265 273 268 257 200 166 222 283 243 167 196 203 205 219 228 240 239 233 249 256 193 175 188
258 260 256 259 273 277 275 271 261 271 287 301 304 297 264 233 234 224 232 246 227 90 93 135 164 159 147 160 202 212 219 221 78 132 167 183 203 227 278 254 257 257 230 235 257 264 123 88 8 226 224 219 98 71 27 4 113 132 147 136 138 204 199 214 237 251 267 263 244 195 180 203 269 235 147 180 193 194 205 209 230 244 229 229 246 214 171 180
251 256 250 244 242 242 258 258 246 260 288 304 301 272 213 222 222 231 230 259 348 132 133 171 172 149 168 185 195 190 199 213 150 158 187 172 178 202 212 193 202 241 245 241 251 238 194 178 198 216 170 116 108 96 55 51 139 166 174 202 242 230 207 219 212 175 243 262 223 181 188 199 232 220 152 182 190 189 191 193 229 251 238 221 226 203 170 176
247 245 246 240 233 231 236 244 256 261 274 316 321 219 212 212 224 235 227 67 6 195 156 179 179 171 196 210 220 181 183 209 182 181 198 183 186 200 202 201 176 193 239 224 225 223 209 210 193 151 103 178 173 154 107 113 185 208 195 197 241 246 231 235 218 198 233 251 137 163 191 209 234 244 229 221 197 190 193 201 241 257 249 239 210 161 153 170
250 241 241 238 230 229 230 240 258 258 262 302 309 216 192 226 232 225 204 184 201 170 105 124 168 175 197 214 221 176 179 212 175 188 208 190 208 215 211 220 206 226 259 208 208 210 214 232 177 167 203 191 187 196 206 192 185 194 192 186 209 233 250 252 244 241 244 240 138 142 183 239 255 248 228 229 216 202 202 208 234 247 242 244 182 132 147 172
251 241 238 234 228 229 228 231 242 244 247 239 194 188 175 230 236 172 192 213 197 127 121 101 154 179 201 219 200 165 204 218 164 181 206 190 216 225 214 222 220 237 278 215 241 222 239 270 179 172 173 169 188 210 216 149 175 194 196 198 217 232 246 252 259 262 272 291 214 161 177 243 269 220 197 215 218 208 207 210 225 238 236 227 140 137 168 181
247 238 234 227 219 225 224 218 217 210 204 190 196 194 199 231 232 166 214 217 181 172 154 119 172 191 216 224 197 193 219 216 171 179 202 201 214 216 208 212 207 205 200 214 244 203 236 260 166 135 123 161 182 216 183 120 176 191 183 210 232 232 225 246 278 279 295 308 268 188 214 245 264 267 181 194 211 203 202 214 226 238 233 213 178 186 193 185
241 230 227 217 212 219 215 207 203 191 187 196 201 207 219 236 224 176 211 207 201 189 144 161 204 203 230 213 192 209 210 202 183 184 210 215 227 228 215 206 195 193 190 195 214 193 229 256 137 110 33 160 165 278 174 182 215 166 174 207 223 272 226 243 273 288 139 279 266 207 235 257 268 261 184 166 197 199 193 208 226 236 229 219 216 208 198 188
233 220 218 212 213 215 208 202 196 183 188 205 207 220 233 244 238 221 209 193 218 191 162 219 213 197 225 221 203 194 176 181 186 186 212 203 224 223 207 211 198 194 199 201 216 221 229 260 178 171 205 146 22 350 33 337 355 143 187 210 103 45 305 245 264 282 248 267 272 257 260 263 268 265 169 163 190 195 194 208 223 230 222 220 226 217 206 194
228 216 223 217 213 209 200 196 185 169 154 175 227 239 253 261 252 246 228 132 208 194 197 230 214 195 219 233 226 180 163 187 182 179 217 203 213 197 184 206 203 195 207 210 221 253 219 253 230 168 88 115 113 237 194 173 146 152 276 292 52 229 211 197 222 253 254 262 274 275 276 267 253 251 173 174 190 191 198 211 219 222 215 216 224 226 226 208
224 215 250 217 209 205 193 185 173 156 152 178 222 238 255 263 259 288 301 245 227 215 222 237 231 222 227 237 245 184 167 188 176 173 211 204 210 181 169 188 200 200 208 203 211 237 187 237 240 47 8 114 143 211 201 174 164 191 294 277 256 260 224 199 202 222 242 253 273 283 285 276 243 226 177 175 187 192 202 212 217 221 220 215 215 221 226 214
196 161 258 192 195 195 182 172 162 164 189 194 219 232 246 265 269 288 292 268 250 240 238 243 241 241 239 239 252 227 193 202 191 194 209 193 207 195 172 179 191 203 207 197 211 226 151 229 239 110 348 232 195 197 194 189 182 184 221 220 204 203 306 291 241 226 232 243 256 274 280 276 171 151 169 169 181 194 199 205 209 213 215 213 211 211 211 213
169 237 213 176 179 175 163 159 171 184 201 221 235 239 245 265 279 272 290 359 318 286 298 276 258 259 262 252 251 239 215 221 213 215 220 202 219 221 176 183 183 158 160 187 214 215 182 210 225 198 196 226 219 199 195 196 186 186 197 199 195 186 182 234 236 221 203 235 239 243 270 273 156 105 147 162 178 198 195 189 191 199 206 207 208 208 204 211
185 262 181 170 172 163 152 172 198 183 211 219 220 234 237 254 267 260 258 248 140 305 334 315 287 275 275 268 267 258 230 234 231 229 237 226 229 227 175 182 181 148 144 183 211 208 182 172 224 231 225 227 221 172 248 238 338 270 224 205 203 192 192 212 221 211 175 225 244 237 261 270 232 100 113 144 166 194 183 180 197 202 202 204 205 204 202 211
213 244 160 172 171 161 153 202 197 197 224 221 228 237 212 218 245 241 235 225 201 164 218 264 278 271 267 272 277 276 263 250 237 239 251 250 242 240 195 180 172 162 177 197 202 190 98 125 225 243 255 266 290 87 52 39 179 259 241 215 214 208 211 219 224 245 176 210 230 221 244 263 254 99 108 151 176 199 186 192 217 217 207 211 212 206 204 211
219 222 150 177 177 170 171 199 197 213 226 231 241 236 229 230 231 229 227 216 200 184 207 231 247 253 259 274 278 277 279 269 248 251 259 257 257 294 227 189 176 187 204 200 170 175 170 193 209 238 258 263 264 223 205 166 191 222 228 216 217 217 220 230 244 319 244 235 235 228 239 254 245 113 153 197 182 196 201 196 213 222 219 220 220 215 209 207
234 223 133 185 188 190 200 202 206 216 216 223 230 230 232 232 226 230 232 222 208 203 211 224 227 231 247 261 264 262 264 262 258 264 271 265 276 5 329 222 196 203 225 355 2 191 188 189 186 213 235 230 238 242 229 148 187 216 228 217 215 213 212 222 232 223 236 241 239 235 243 254 264 275 267 245 200 216 233 216 201 213 224 233 234 225 210 207
252 224 173 185 202 217 231 229 232 224 209 218 227 226 229 233 236 229 225 230 229 221 223 220 191 213 237 240 246 249 246 246 250 261 269 267 272 353 6 307 255 245 340 4 351 194 192 212 198 215 233 229 238 249 256 100 160 196 217 215 212 212 212 216 225 226 234 243 239 236 241 253 265 270 270 265 259 268 272 271 264 245 239 241 236 225 212 214
268 238 186 168 202 226 237 239 235 224 203 202 203 199 220 230 239 221 204 216 223 216 222 231 215 219 225 221 232 242 241 241 245 251 259 263 263 265 23 8 312 341 12 355 330 37 2 242 219 224 236 238 246 255 258 246 206 198 209 208 205 211 212 215 224 229 232 242 246 242 242 249 255 260 268 272 270 272 276 280 281 277 271 266 227 203 221 228
251 268 197 190 209 209 216 221 222 224 216 205 202 211 223 226 226 218 206 209 215 199 198 225 220 219 224 221 223 235 237 242 246 245 251 258 256 255 282 307 273 17 30 351 349 58 224 251 244 244 250 249 251 255 257 256 245 228 227 222 216 213 211 219 227 227 226 238 248 249 250 252 252 253 262 268 271 273 275 278 281 280 282 283 201 179 231 240
250 276 287 256 242 215 214 216 215 219 219 214 215 219 225 230 227 223 207 189 215 206 202 220 217 214 222 224 222 227 225 225 234 234 232 238 244 248 262 264 260 71 71 285 321 56 246 263 256 258 265 262 258 258 258 260 260 255 253 250 246 241 234 234 232 218 224 236 242 249 255 258 257 255 259 266 274 277 277 278 279 278 279 280 267 251 264 265
264 280 288 281 282 285 266 242 225 224 220 216 221 218 221 231 232 230 216 194 203 202 200 221 227 216 219 221 219 225 224 222 231 235 227 222 229 234 233 240 247 145 131 231 248 203 214 234 241 251 264 258 253 255 256 257 260 260 259 260 259 255 249 244 233 214 226 236 239 246 256 262 261 258 261 267 271 273 274 274 275 276 277 279 280 277 277 278
290 317 318 295 281 271 275 270 246 241 232 217 223 222 222 228 230 233 231 214 210 204 192 210 225 225 224 223 222 228 228 226 232 237 234 220 212 219 215 203 213 208 176 203 213 187 205 232 237 237 249 249 243 246 248 250 254 256 257 256 251 249 248 243 232 225 227 233 239 245 251 254 255 259 263 266 266 266 267 270 273 274 277 281 282 276 274 277
304 325 325 303 284 234 233 261 249 244 245 233 233 232 231 234 232 235 243 231 223 225 215 210 220 225 227 226 225 225 227 229 233 236 239 235 227 230 230 190 187 192 183 196 209 190 196 224 232 226 240 249 243 244 249 251 252 246 236 234 238 243 250 251 245 237 227 224 232 236 235 240 250 257 263 266 265 261 258 262 269 272 277 282 278 270 271 275